Weather History for New Orleans Lakefront, LA

Change the Weather History Date:

Tuesday, August 21, 2012

  Actual Average Record
Temperature  
Mean Temperature 81 °F 83 °F  
Max Temperature 88 °F 91 °F 99 °F (1980)
Min Temperature 73 °F 75 °F 68 °F (1993)
Degree Days  
Heating Degree Days 0 0  
Month to date heating degree days 0 0  
Since 1 June heating degree days 0 0  
Since 1 July heating degree days 0 0  
Cooling Degree Days 16 18  
Month to date cooling degree days 384 378  
Year to date cooling degree days 2507 2058  
Since 1 June cooling degree days 1491 1439  
Growing Degree Days 34 (Base 50)    
Moisture  
Dew Point 72 °F    
Average Humidity 75    
Maximum Humidity 93    
Minimum Humidity 57    
Precipitation  
Precipitation 0.00 in 0.20 in 3.35 in (2009)
Month to date precipitation 7.60 4.09  
Year to date precipitation 46.21 42.32  
Snow  
Snow 0.00 in - - ()
Month to date snowfall 0.0  
Since 1 June snowfall 0.0  
Since 1 July snowfall 0.0  
Snow Depth 0.00 in    
Sea Level Pressure  
Sea Level Pressure 29.96 in    
Wind  
Wind Speed 5 mph (ENE)    
Max Wind Speed 15 mph    
Max Gust Speed 22 mph    
Visibility 9 miles    
Events Rain    
T = Trace of Precipitation, MM = Missing Value Source: NWS Daily Summary

Daily Weather History Graph

Daily Weather History Graph

Search for Another Location

Airport:

Trip Planner

Search our weather history database for the weather conditions in past years. The results will help you decide how hot, cold, wet, or windy it might be!

Date:

Astronomy

Aug. 21, 2012 Rise Set
Actual Time 6:31 AM CDT 7:34 PM CDT
Civil Twilight 6:06 AM CDT 7:59 PM CDT
Nautical Twilight 5:36 AM CDT 8:28 PM CDT
Astronomical Twilight 5:06 AM CDT 8:58 PM CDT
Moon 10:36 AM CDT (8/21) 10:02 PM CDT (8/21)
Length of Visible Light 13h 52m
Length of Day
13h 03m
Waxing Crescent, 19% of the Moon is Illuminated
Aug 21
Waxing Crescent
Aug 24
First Quarter
Aug 31
Full
Sep 8
Last Quarter
Sep 15
New

Hourly Weather History & Observations

Time (CDT) Temp. Heat Index Dew Point Humidity Pressure Visibility Wind Dir Wind Speed Gust Speed Precip Events Conditions
12:14 AM 80.6 °F 84.6 °F 71.6 °F 74% 29.91 in 10.0 mi South 5.8 mph - N/A   Mostly Cloudy
12:53 AM 80.1 °F 83.8 °F 72.0 °F 76% 29.89 in 10.0 mi Calm Calm - N/A   Partly Cloudy
1:53 AM 80.1 °F 84.2 °F 73.0 °F 79% 29.88 in 10.0 mi SE 3.5 mph - N/A   Mostly Cloudy
2:53 AM 79.0 °F - 72.0 °F 79% 29.89 in 10.0 mi SSE 3.5 mph - N/A   Partly Cloudy
3:53 AM 79.0 °F - 73.0 °F 82% 29.92 in 8.0 mi Calm Calm - N/A   Clear
4:53 AM 80.1 °F 83.6 °F 71.1 °F 74% 29.93 in 10.0 mi WSW 4.6 mph - N/A   Clear
5:53 AM 78.1 °F - 71.1 °F 79% 29.92 in 8.0 mi SE 4.6 mph - N/A   Clear
6:53 AM 79.0 °F - 72.0 °F 79% 29.93 in 6.0 mi SE 3.5 mph - N/A   Haze
7:26 AM 80.6 °F 85.4 °F 73.4 °F 79% 29.95 in 7.0 mi East 6.9 mph - N/A   Partly Cloudy
7:53 AM 81.0 °F 86.2 °F 73.9 °F 79% 29.95 in 9.0 mi East 6.9 mph - N/A   Partly Cloudy
8:00 AM 80.6 °F 85.4 °F 73.4 °F 79% 29.97 in 9.0 mi East 8.1 mph - N/A   Partly Cloudy
8:53 AM 82.9 °F 89.4 °F 73.9 °F 74% 29.95 in 10.0 mi ENE 9.2 mph - N/A   Scattered Clouds
9:53 AM 84.9 °F 91.4 °F 73.0 °F 67% 29.98 in 10.0 mi ENE 9.2 mph - N/A   Mostly Cloudy
10:53 AM 84.9 °F 90.7 °F 72.0 °F 65% 29.99 in 10.0 mi NE 9.2 mph - N/A   Mostly Cloudy
11:53 AM 86.0 °F 92.2 °F 72.0 °F 63% 29.99 in 10.0 mi NNE 9.2 mph - N/A   Scattered Clouds
12:53 PM 87.1 °F 92.0 °F 70.0 °F 57% 29.98 in 10.0 mi NNE 6.9 mph - N/A   Scattered Clouds
1:53 PM 88.0 °F 94.7 °F 72.0 °F 59% 29.97 in 10.0 mi NNE 5.8 mph - N/A   Scattered Clouds
2:53 PM 89.1 °F 96.0 °F 72.0 °F 57% 29.96 in 10.0 mi North 5.8 mph - N/A   Clear
3:53 PM 90.0 °F 97.9 °F 73.0 °F 57% 29.97 in 10.0 mi North 3.5 mph - N/A   Clear
4:53 PM 89.1 °F 95.0 °F 71.1 °F 55% 29.96 in 10.0 mi North 4.6 mph - N/A   Clear
5:53 PM 88.0 °F 92.9 °F 70.0 °F 55% 29.95 in 10.0 mi Calm Calm - N/A   Clear
6:53 PM 87.1 °F 92.8 °F 71.1 °F 59% 29.96 in 10.0 mi NE 5.8 mph - N/A   Partly Cloudy
7:34 PM 84.2 °F 89.6 °F 71.6 °F 66% 30.00 in 1.8 mi NE 9.2 mph - 0.07 in Rain Heavy Rain
7:53 PM 84.0 °F 89.6 °F 72.0 °F 67% 29.99 in 2.0 mi ENE 10.4 mph - 0.25 in Rain Rain
8:03 PM 84.2 °F 89.6 °F 71.6 °F 66% 30.01 in 4.0 mi NE 13.8 mph - 0.03 in Rain Light Rain
8:53 PM 84.9 °F 90.1 °F 71.1 °F 63% 29.98 in 9.0 mi NE 13.8 mph - 0.03 in   Scattered Clouds
9:53 PM 84.9 °F 90.1 °F 71.1 °F 63% 30.00 in 9.0 mi NE 8.1 mph - N/A   Clear
10:53 PM 84.9 °F 89.4 °F 70.0 °F 61% 30.00 in 10.0 mi NE 13.8 mph - N/A   Clear
11:53 PM 84.0 °F 87.0 °F 68.0 °F 58% 29.99 in 10.0 mi ENE 12.7 mph - N/A   Clear